EW6434 Weather Reports


time (UTC)temp
C
wind
direction
speed
KPH
gust
KPH
rain 1hr
cm
rain 24hr
cm
rain mn
cm
humidity
%
barometer
mb
20260504200106 10 60 3.2 12.9 0.00 0.20 0.18 45 1007.2
20260504194605 10 235 1.6 11.3 0.00 0.20 0.18 47 1007.3
20260504193057 10 143 1.6 14.5 0.00 0.20 0.18 46 1007.1
20260504191618 9 236 3.2 12.9 0.00 0.20 0.18 48 1007.5
20260504190059 10 153 3.2 12.9 0.00 0.20 0.18 51 1007.3
20260504184602 9 122 1.6 14.5 0.00 0.20 0.18 51 1007.4
20260504183053 9 140 1.6 14.5 0.00 0.20 0.18 52 1007.4
20260504181551 9 207 1.6 12.9 0.00 0.20 0.18 55 1007.8
20260504180051 9 124 1.6 8.0 0.00 0.20 0.18 56 1007.9
20260504174549 9 167 3.2 9.7 0.00 0.20 0.18 55 1007.6
20260504173048 10 90 1.6 8.0 0.00 0.20 0.18 56 1007.6
20260504171545 9 113 1.6 8.0 0.00 0.20 0.18 59 1008.0
20260504081544 2 269 0.0 0.0 0.05 0.13 0.10 92 1011.8
20260504050020 5 25 0.0 3.2 0.00 0.00 0.00 75 1014.2
20260504044518 5 61 0.0 0.0 0.00 0.00 0.00 74 1014.2
20260504043018 5 61 0.0 0.0 0.00 0.00 0.00 71 1014.3
20260504041517 5 194 0.0 11.3 0.00 0.00 0.00 67 1014.4
20260504040017 6 269 6.4 14.5 0.00 0.00 0.00 60 1014.1
20260504034518 6 22 0.0 1.6 0.00 0.00 0.00 48 1012.8
20260504033015 5 264 0.0 1.6 0.00 0.00 0.00 51 1012.5
20260504031515 6 284 0.0 0.0 0.00 0.00 0.00 51 1012.2
20260504030014 6 284 0.0 1.6 0.00 0.00 0.00 49 1012.1
20260504024513 7 286 0.0 0.0 0.00 0.00 0.00 45 1012.2
20260504023012 7 286 0.0 0.0 0.00 0.00 0.00 42 1011.9
20260504021512 7 286 0.0 0.0 0.00 0.00 0.00 38 1011.9
20260504020014 8 286 0.0 0.0 0.00 0.00 0.00 36 1011.8
20260504014510 10 286 0.0 0.0 0.00 0.00 0.00 32 1011.8
20260504013014 10 286 0.0 0.0 0.00 0.00 0.00 31 1011.5
20260504011510 11 153 0.0 0.0 0.00 0.00 0.00 30 1011.7
20260504010009 12 252 0.0 3.2 0.00 0.00 0.00 27 1011.7
20260504004508 12 199 0.0 9.7 0.00 0.00 0.00 27 1012.0
20260504003005 13 206 1.6 9.7 0.00 0.00 0.00 26 1012.0
20260504001505 13 249 0.0 12.9 0.00 0.00 0.00 27 1012.2
20260504000004 13 243 0.0 6.4 0.00 0.00 0.00 25 1012.1
20260503234503 12 221 0.0 11.3 0.00 0.00 0.00 26 1012.4
20260503233002 12 153 1.6 11.3 0.00 0.00 0.00 24 1012.3
20260503231600 13 84 1.6 9.7 0.00 0.00 0.00 28 1012.5
20260503230100 12 268 0.0 4.8 0.00 0.00 0.00 30 1012.6
20260503224554 12 172 1.6 16.1 0.00 0.00 0.00 29 1012.8
20260503223052 12 268 0.0 6.4 0.00 0.00 0.00 29 1012.9
20260503221550 11 240 0.0 4.8 0.00 0.00 0.00 30 1013.2
20260503220050 11 122 0.0 3.2 0.00 0.00 0.00 30 1013.4
20260503214546 11 122 0.0 4.8 0.00 0.00 0.00 31 1013.7
20260503213047 11 147 0.0 4.8 0.00 0.00 0.00 30 1014.0
20260503211543 12 133 1.6 6.4 0.00 0.00 0.00 30 1014.3
20260503210041 11 163 3.2 11.3 0.00 0.00 0.00 32 1014.7
20260503204540 11 9 0.0 4.8 0.00 0.00 0.00 32 1014.9
20260503203043 12 127 1.6 8.0 0.00 0.00 0.00 34 1015.0
20260503201537 10 158 0.0 11.3 0.00 0.00 0.00 35 1015.5